Regional Weather Roundup
Issued by NWS Cleveland, OH

Home | Current Version | Previous Version | Graphics & Text | Print | Product List | Glossary On
Versions: 1 2 3 4 5 6 7 8 9 10 11 12 13 14 15 16 17 18 19 20 21 22 23 24 25 26 27 28 29 30 31 32 33 34 35 36 37 38 39 40 41 42 43 44 45 46 47 48 49 50
000
ASUS41 KCLE 020000
RWRCLE
OHIO REGIONAL WEATHER ROUNDUP
NATIONAL WEATHER SERVICE WILMINGTON, OH
800 PM EDT MON JUN 01 2015

NOTE: "FAIR" INDICATES FEW OR NO CLOUDS BELOW 12,000 FEET WITH NO
SIGNIFICANT WEATHER AND/OR OBSTRUCTIONS TO VISIBILITY.

OHZ001>008-015>018-024>027-034-035-043-044-020100-
   NORTHWEST OHIO

CITY           SKY/WX    TMP DP  RH WIND       PRES   REMARKS
DEFIANCE       CLOUDY    60  45  57 E6        30.18R
FINDLAY        CLOUDY    56  47  71 NE9       30.17R
TOLEDO EXPRESS CLOUDY    57  42  57 E10       30.18R
TOLEDO EXEC    MOCLDY    57  46  66 E7        30.20R
LIMA           CLOUDY    54  48  80 NE6       30.17R
$$

OHZ009>014-019>023-028>033-038-089-020100-
   NORTHEAST OHIO

CITY           SKY/WX    TMP DP  RH WIND       PRES   REMARKS
CLE-HOPKINS    CLOUDY    54  46  74 NE13      30.19R
CLE-LAKEFRONT  CLOUDY    54  46  74 NE8       30.17S
CUY CO. ARPT   CLOUDY    54 N/A N/A NE9       30.18R
LORAIN-ELYRIA  CLOUDY    53  46  77 NE8       30.18R
ASHTABULA      CLOUDY    52  47  83 VRB5      30.18R
AKRON-CANTON   LGT RAIN  53  46  77 NE7       30.14S
WOOSTER        NOT AVBL
MANSFIELD      CLOUDY    51  47  86 N10       30.16R
YOUNGSTOWN     LGT RAIN  51  47  86 NE10      30.15F
$$

OHZ042-051>053-060>062-070>072-077>081-020100-
  SOUTHWEST OHIO

CITY           SKY/WX    TMP DP  RH WIND       PRES   REMARKS
CINC-COVINGTON CLOUDY    58  51  78 NE8       30.13R
CINC-LUNKEN    CLOUDY    57  52  83 NE8       30.14R
HAMILTON       CLOUDY    58  52  80 NE6       30.15R
DAYTON         NOT AVBL
WRIGHT-PAT AFB NOT AVBL
DAYTON GENERAL CLOUDY    56  51  84 NE12      30.14R
WILMINGTON     CLOUDY    54  50  86 NE10      30.13R
$$

OHZ036-037-039>041-045>050-054>059-063>069-073>076-082>088-020100-
  CENTRAL AND SOUTHEAST OHIO

CITY           SKY/WX    TMP DP  RH WIND       PRES   REMARKS
COLUMBUS       CLOUDY    54  50  86 N9        30.12R
OSU AIRPORT    CLOUDY    54  49  83 N8        30.13R
BOLTON FIELD   NOT AVBL
RICKENBACK AFB NOT AVBL
NEWARK         CLOUDY    53  49  86 VRB3      30.11S
MARION         CLOUDY    53  46  77 NE14      30.15F
LANCASTER      CLOUDY    54  50  86 NE9       30.12R
ZANESVILLE     CLOUDY    54  49  83 NE7       30.11S HAZE
NEW PHILLY     CLOUDY    54  48  80 N6        30.14S
$$



USA.gov is the U.S. government's official web portal to all federal, state and local government web resources and services.